Overview Statistics Trail Chart Weather Telemetry Raw packets
 

This is the latest recevied weather packets stored in our database for station/object VU3OPZ-13. If no packets are shown the sender has not sent any weather packets the latest 10 day(s).

<< 7 8 9 10 11 12 13 >>
Time Temp. Humidity Pressure Rain* Wind** Luminosity Snow
1787994416 27.78° C 58% 1009 hPa 0 mm - - -
1787992611 28.33° C 57% 1009 hPa 0 mm - - -
1787990807 28.33° C 57% 1010 hPa 0 mm - - -
1787981074 26.67° C 62% 1011 hPa 0 mm - - -
1787979270 26.67° C 61% 1011 hPa 0 mm - - -
1787977471 26.11° C 66% 1012 hPa 0 mm - - -
1787975662 25.56° C 66% 1012 hPa 0 mm - - -
1787973862 24.44° C 72% 1012 hPa 0 mm - - -
1787972053 24.44° C 71% 1012 hPa 0 mm - - -
1787970250 23.33° C 81% 1011 hPa 0 mm - - -
1787968444 22.78° C 81% 1011 hPa 0 mm - - -
1787966639 21.67° C 88% 1011 hPa 0 mm - - -
1787964835 21.67° C 88% 1011 hPa 0 mm - - -
1787963031 21.67° C 87% 1010 hPa 0 mm - - -
1787961227 21.67° C 87% 1010 hPa 0 mm - - -
1787957822 21.67° C 87% 1010 hPa 0 mm - - -
1787956017 21.67° C 88% 1010 hPa 0 mm - - -
1787954213 21.67° C 88% 1010 hPa 0 mm - - -
1787952409 21.67° C 89% 1010 hPa 0 mm - - -
1787949514 21.67° C 89% 1010 hPa 0 mm - - -
1787947720 21.67° C 89% 1011 hPa 0 mm - - -
1787945905 21.67° C 89% 1011 hPa 0 mm - - -
1787944101 22.22° C 87% 1012 hPa 0 mm - - -
1787943064 22.22° C 87% 1012 hPa 0 mm - - -
1787941259 22.22° C 85% 1012 hPa 0 mm - - -

* Rain latest hour (hover to see other rain measurements)
** Current wind speed in m/s (hover to see current wind gust speed)